Tracking 25656 objects as of 21-May-2022
HD Live streaming from Space Station
objects crossing your sky now

FLOCK 4S 31

Track FLOCK 4S 31 now!
10-day predictions
FLOCK 4S 31 is classified as:


NORAD ID: 47475
Int'l Code: 2021-006BQ
Perigee: 520.7 km
Apogee: 531.4 km
Inclination: 97.4 °
Period: 95.0 minutes
Semi major axis: 6897 km
RCS: Unknown
Launch date: January 24, 2021
Source: United States (US)
Launch site: ()
aabbcc
Your satellite tracking list
Your tracking list is empty




NASA's NSSDC Master Catalog

Two Line Element Set (TLE):
1 47475U 21006BQ  22141.14549221  .00023055  00000-0  12108-2 0  9993
2 47475  97.4398 200.3103 0007759  37.7083 322.4692 15.15687161 73115
Source of the keplerian elements: AFSPC